Location: Unspecified
(0.0000°N, 0.0000°E)
Time: 02:27:57
(UTC+00:00)

Vanguard 2 - Pass Details

Date: 15 December 2018
Orbit: 553 x 2939 km, 32.9° (Epoch: 16 January)

Event Time Altitude Azimuth Distance (km) Brightness Sun altitude
Rises 12:59:11 0° 215° (SW) 4,936 12.1 62.0°
Reaches altitude 10° 13:04:55 10° 193° (SSW) 3,357 11.4 61.2°
Maximum altitude 13:08:52 14° 163° (SSE) 2,638 10.7 60.6°
Drops below altitude 10° 13:12:06 10° 132° (SE) 2,614 10.4 60.1°
Sets 13:15:33 0° 106° (ESE) 3,221 10.6 59.6°
